Date String (YYYY-MM-DD hh:mm:ss) UTC,Instrument flags,Ambient pressure (hPa),Sample flow (lpm),Bypass flow (lpm),Sample temperature (°C),Ambient temperature (°C),ASC tube jacket temperature (°C),LED temperature (°C),Box temperature (°C),Sample RH (%),Span deviation,Mass concentration (μg/m³),Mass concentration (μg/m³),Mass concentration (μg/m³)
DateTimeUTC,F1_M11,P_M11,Q1_M11,Q2_M11,T1_M11,T2_M11,T3_M11,T4_M11,T5_M11,U1_M11,ZSPAN_M11,X0_M11,X2_M11,X1_M11
2023-01-09 15:00:00,,0825.0,5.00,0.00,21.7,20.3,00.0,30.6,23.4,12.1,0000.0,0001.53,0000.97,0000.76
2023-01-09 15:01:00,,0825.1,5.00,0.00,21.7,20.4,00.0,30.6,23.4,12.1,0000.0,0001.51,0000.98,0000.76
2023-01-09 15:02:00,,0825.0,5.00,0.00,21.7,20.4,00.0,30.6,23.4,12.1,0000.0,0001.35,0000.97,0000.76
2023-01-09 15:03:00,,0824.9,5.00,0.00,21.7,20.5,00.0,30.6,23.4,12.0,0000.0,0001.39,0000.99,0000.76
2023-01-09 15:04:00,,0824.9,5.00,0.00,21.7,20.5,00.0,30.6,23.4,12.0,0000.0,0001.38,0000.99,0000.76
2023-01-09 15:05:00,,0824.9,4.99,0.00,21.7,20.5,00.0,30.6,23.4,11.9,0000.0,0001.68,0001.00,0000.76
2023-01-09 15:06:00,,0825.0,5.00,0.00,21.7,20.5,00.0,30.6,23.5,12.0,0000.0,0001.88,0001.00,0000.76
2023-01-09 15:07:00,,0825.2,5.00,0.00,21.8,20.5,00.0,30.6,23.5,11.9,0000.0,0002.09,0001.01,0000.76
2023-01-09 15:08:00,,0825.2,5.01,0.00,21.8,20.6,00.0,30.6,23.5,12.0,0000.0,0002.37,0001.01,0000.76
2023-01-09 15:09:00,,0825.2,5.00,0.00,21.8,20.6,00.0,30.6,23.5,11.9,0000.0,0002.45,0001.02,0000.76
2023-01-09 15:10:00,,0825.1,5.01,0.00,21.8,20.7,00.0,30.6,23.6,12.0,0000.0,0002.68,0001.04,0000.76
2023-01-09 15:11:00,,0825.1,5.00,0.00,21.8,20.7,00.0,30.6,23.6,12.0,0000.0,0003.09,0001.04,0000.75
2023-01-09 15:12:00,,0825.2,4.99,0.00,21.8,20.7,00.0,30.6,23.6,11.9,0000.0,0003.09,0001.04,0000.76
2023-01-09 15:13:00,,0825.3,5.00,0.00,21.8,20.7,00.0,30.6,23.6,11.8,0000.0,0003.08,0001.04,0000.76
2023-01-09 15:14:00,,0825.3,5.01,0.00,21.8,20.7,00.0,30.7,23.6,11.8,0000.0,0003.05,0001.03,0000.76
2023-01-09 15:15:00,,0825.3,4.99,0.00,21.8,20.7,00.0,30.7,23.6,11.8,0000.0,0003.05,0001.02,0000.75
2023-01-09 15:16:00,,0825.3,5.00,0.00,21.9,20.7,00.0,30.7,23.6,11.9,0000.0,0002.84,0001.04,0000.74
2023-01-09 15:17:00,,0825.3,5.00,0.00,21.9,20.7,00.0,30.7,23.6,11.8,0000.0,0003.74,0001.04,0000.74
2023-01-09 15:18:00,,0825.3,5.00,0.00,21.9,20.7,00.0,30.7,23.7,11.7,0000.0,0003.69,0001.03,0000.75
2023-01-09 15:19:00,,0825.3,5.00,0.00,21.9,20.7,00.0,30.7,23.6,11.7,0000.0,0003.36,0001.01,0000.74
2023-01-09 15:20:00,,0825.3,5.01,0.00,21.9,20.7,00.0,30.7,23.7,11.7,0000.0,0003.35,0001.00,0000.73
2023-01-09 15:21:00,,0825.2,4.98,0.00,21.9,20.7,00.0,30.7,23.6,11.7,0000.0,0003.16,0000.98,0000.73
2023-01-09 15:22:00,,0825.2,5.01,0.00,21.9,20.7,00.0,30.7,23.6,11.7,0000.0,0002.90,0001.00,0000.74
2023-01-09 15:23:00,,0825.1,5.02,0.00,21.9,20.7,00.0,30.7,23.6,11.8,0000.0,0002.86,0000.99,0000.73
2023-01-09 15:24:00,,0825.1,4.98,0.00,21.9,20.7,00.0,30.7,23.6,11.7,0000.0,0002.85,0000.99,0000.73
2023-01-09 15:25:00,,0825.2,5.00,0.00,21.9,20.7,00.0,30.7,23.7,11.7,0000.0,0002.86,0000.98,0000.73
2023-01-09 15:26:00,,0825.2,5.01,0.00,21.9,20.7,00.0,30.7,23.7,11.7,0000.0,0002.91,0000.99,0000.74
2023-01-09 15:27:00,,0825.2,5.00,0.00,21.9,20.8,00.0,30.7,23.7,11.8,0000.0,0002.82,0000.96,0000.75
2023-01-09 15:28:00,,0825.2,5.01,0.00,21.9,20.8,00.0,30.7,23.7,11.8,0000.0,0001.76,0000.96,0000.77
2023-01-09 15:29:00,,0825.1,4.99,0.00,21.9,20.8,00.0,30.7,23.7,11.8,0000.0,0001.62,0000.98,0000.78
2023-01-09 15:30:00,,0825.0,5.00,0.00,22.0,20.8,00.0,30.7,23.8,11.7,0000.0,0001.67,0001.03,0000.79
2023-01-09 15:31:00,,0825.0,4.99,0.00,22.0,20.8,00.0,30.8,23.8,11.7,0000.0,0001.67,0001.05,0000.79
2023-01-09 15:32:00,,0825.1,5.00,0.00,22.0,20.9,00.0,30.8,23.7,11.8,0000.0,0001.85,0001.12,0000.81
2023-01-09 15:33:00,,0824.9,5.01,0.00,22.0,20.9,00.0,30.8,23.8,11.8,0000.0,0001.78,0001.15,0000.82
2023-01-09 15:34:00,,0824.9,5.01,0.00,22.0,20.9,00.0,30.8,23.8,11.8,0000.0,0002.74,0001.24,0000.82
2023-01-09 15:35:00,,0825.0,5.01,0.00,22.0,20.9,00.0,30.8,23.8,11.4,0000.0,0002.83,0001.24,0000.82
2023-01-09 15:36:00,,0824.9,5.00,0.00,22.0,20.9,00.0,30.8,23.8,11.6,0000.0,0002.83,0001.25,0000.82
2023-01-09 15:37:00,,0825.0,5.00,0.00,22.0,20.9,00.0,30.8,23.9,11.6,0000.0,0002.84,0001.27,0000.82
2023-01-09 15:38:00,,0824.9,5.00,0.00,22.0,21.0,00.0,30.8,23.9,11.5,0000.0,0003.43,0001.25,0000.81
2023-01-09 15:39:00,,0824.8,5.00,0.00,22.0,21.0,00.0,30.8,23.9,11.5,0000.0,0003.82,0001.22,0000.79
2023-01-09 15:40:00,,0824.9,5.00,0.00,22.0,21.0,00.0,30.8,23.9,11.4,0000.0,0004.33,0001.19,0000.77
2023-01-09 15:41:00,,0824.9,5.00,0.00,22.1,21.0,00.0,30.9,23.9,11.2,0000.0,0004.73,0001.16,0000.75
2023-01-09 15:42:00,,0824.9,4.99,0.00,22.1,21.0,00.0,30.9,23.9,11.3,0000.0,0005.14,0001.13,0000.75
2023-01-09 15:43:00,,0824.8,5.00,0.00,22.1,20.9,00.0,30.9,23.9,11.2,0000.0,0005.05,0001.09,0000.73
2023-01-09 15:44:00,,0824.8,5.01,0.00,22.1,20.9,00.0,30.9,23.9,11.5,0000.0,0004.99,0001.05,0000.71
2023-01-09 15:45:00,,0824.9,5.01,0.00,22.1,20.9,00.0,30.9,23.9,11.5,0000.0,0004.16,0000.99,0000.71
2023-01-09 15:46:00,,0824.8,5.01,0.00,22.1,20.8,00.0,30.9,23.9,11.1,0000.0,0004.22,0000.99,0000.70
2023-01-09 15:47:00,,0824.8,5.00,0.00,22.1,20.8,00.0,30.9,23.8,11.0,0000.0,0004.21,0000.97,0000.69
2023-01-09 15:48:00,,0824.6,5.00,0.00,22.0,20.7,00.0,30.9,23.8,10.9,0000.0,0004.14,0000.92,0000.68
2023-01-09 15:49:00,,0824.7,5.00,0.00,22.0,20.7,00.0,30.9,23.8,10.9,0000.0,0004.66,0000.92,0000.67
2023-01-09 15:50:00,,0824.8,5.01,0.00,22.0,20.7,00.0,30.9,23.7,11.0,0000.0,0005.04,0000.94,0000.66
2023-01-09 15:51:00,,0824.7,5.00,0.00,22.0,20.7,00.0,30.9,23.8,11.0,0000.0,0004.62,0000.94,0000.66
2023-01-09 15:52:00,,0824.7,5.01,0.00,22.0,20.7,00.0,30.9,23.8,11.4,0000.0,0004.27,0000.92,0000.66
2023-01-09 15:53:00,,0824.9,5.00,0.00,22.0,20.7,00.0,30.9,23.8,11.5,0000.0,0003.63,0000.91,0000.66
2023-01-09 15:54:00,,0824.9,5.00,0.00,22.0,20.7,00.0,30.9,23.8,11.5,0000.0,0003.59,0000.90,0000.67
2023-01-09 15:55:00,,0824.9,5.00,0.00,22.0,20.8,00.0,30.9,23.8,11.8,0000.0,0003.60,0000.89,0000.67
2023-01-09 15:56:00,,0824.9,5.00,0.00,22.0,20.9,00.0,30.9,23.8,11.6,0000.0,0003.58,0000.88,0000.66
2023-01-09 15:57:00,,0824.9,5.01,0.00,22.1,21.0,00.0,30.9,23.8,11.5,0000.0,0003.51,0000.89,0000.67
2023-01-09 15:58:00,,0824.9,4.99,0.00,22.1,21.0,00.0,30.9,23.9,11.1,0000.0,0003.45,0000.89,0000.67
2023-01-09 15:59:00,,0824.9,4.99,0.00,22.1,21.1,00.0,30.9,23.9,11.0,0000.0,0003.53,0000.95,0000.69
